EW5196 Weather Reports


time (UTC)temp
C
wind
direction
speed
KPH
gust
KPH
rain 1hr
cm
rain 24hr
cm
rain mn
cm
humidity
%
barometer
mb
20260903181512 35 261 4.8 4.8 0.00 0.00 0.00 56 1017.8
20260903181011 35 278 4.8 8.0 0.00 0.00 0.00 54 1017.7
20260903180507 35 210 1.6 6.4 0.00 0.00 0.00 55 1017.8
20260903180006 35 249 4.8 4.8 0.00 0.00 0.00 55 1017.9
20260903175505 34 345 0.0 0.0 0.00 0.00 0.00 58 1018.2
20260903175004 33 277 1.6 6.4 0.00 0.00 0.00 58 1018.1
20260903174459 34 237 1.6 4.8 0.00 0.00 0.00 56 1018.2
20260903173954 33 286 0.0 6.4 0.00 0.00 0.00 58 1018.2
20260903173449 34 153 0.0 6.4 0.00 0.00 0.00 57 1018.1
20260903172945 33 235 4.8 6.4 0.00 0.00 0.00 58 1018.3
20260903172440 33 170 0.0 4.8 0.00 0.00 0.00 59 1018.3
20260903171935 33 144 4.8 6.4 0.00 0.00 0.00 60 1018.2
20260903171431 33 247 4.8 6.4 0.00 0.00 0.00 61 1018.4
20260903170931 33 217 3.2 4.8 0.00 0.00 0.00 61 1018.3
20260903170425 32 167 3.2 4.8 0.00 0.00 0.00 61 1018.3
20260903165924 32 148 3.2 4.8 0.00 0.00 0.00 62 1018.2
20260903165419 32 248 8.0 9.7 0.00 0.00 0.00 62 1018.6
20260903164919 32 279 3.2 4.8 0.00 0.00 0.00 63 1018.5
20260903164414 32 242 8.0 8.0 0.00 0.00 0.00 62 1018.8
20260903163914 32 253 6.4 8.0 0.00 0.00 0.00 64 1018.6
20260903163410 32 263 1.6 3.2 0.00 0.00 0.00 65 1018.6
20260903162906 32 236 4.8 4.8 0.00 0.00 0.00 66 1018.6
20260903162402 32 336 0.0 1.6 0.00 0.00 0.00 68 1018.8
20260903161857 31 224 1.6 3.2 0.00 0.00 0.00 68 1018.8
20260903161352 31 310 3.2 8.0 0.00 0.00 0.00 68 1018.9
20260903160849 31 212 4.8 8.0 0.00 0.00 0.00 67 1019.0
20260903160347 31 273 1.6 3.2 0.00 0.00 0.00 69 1018.8
20260903155846 31 48 1.6 9.7 0.00 0.00 0.00 69 1018.9
20260903155341 31 229 3.2 3.2 0.00 0.00 0.00 70 1018.9
20260903154836 31 146 4.8 6.4 0.00 0.00 0.00 71 1019.1
20260903154333 31 156 3.2 6.4 0.00 0.00 0.00 67 1019.1
20260903153827 31 271 3.2 3.2 0.00 0.00 0.00 67 1018.8
20260903153323 31 239 3.2 9.7 0.00 0.00 0.00 68 1019.0
20260903152820 31 284 1.6 8.0 0.00 0.00 0.00 69 1019.1
20260903152315 31 3 0.0 3.2 0.00 0.00 0.00 69 1019.0
20260903151810 31 235 3.2 4.8 0.00 0.00 0.00 70 1019.0
20260903151306 30 175 0.0 6.4 0.00 0.00 0.00 70 1019.0
20260903150805 30 278 3.2 6.4 0.00 0.00 0.00 70 1018.8
20260903150300 30 154 3.2 4.8 0.00 0.00 0.00 72 1019.1
20260903145755 30 236 1.6 8.0 0.00 0.00 0.00 72 1018.9
20260903145250 30 168 1.6 3.2 0.00 0.00 0.00 73 1019.1
20260903144749 30 22 0.0 6.4 0.00 0.00 0.00 72 1019.0
20260903144245 30 29 1.6 4.8 0.00 0.00 0.00 72 1018.9
20260903143740 30 299 4.8 6.4 0.00 0.00 0.00 72 1018.6
20260903143237 30 233 3.2 4.8 0.00 0.00 0.00 73 1018.8
20260903142732 30 209 3.2 8.0 0.00 0.00 0.00 73 1018.8
20260903142228 30 156 3.2 4.8 0.00 0.00 0.00 72 1018.7
20260903141724 30 237 4.8 8.0 0.00 0.00 0.00 72 1018.8
20260903141219 30 253 3.2 4.8 0.00 0.00 0.00 72 1018.5
20260903140714 29 207 3.2 3.2 0.00 0.00 0.00 73 1018.4
20260903140209 29 260 0.0 3.2 0.00 0.00 0.00 74 1018.4
20260903135705 29 134 0.0 3.2 0.00 0.00 0.00 74 1018.5
20260903135200 28 339 0.0 3.2 0.00 0.00 0.00 78 1018.3
20260903134658 28 113 1.6 3.2 0.00 0.00 0.00 79 1018.4
20260903134155 27 147 0.0 1.6 0.00 0.00 0.00 79 1018.3
20260903133652 27 190 1.6 1.6 0.00 0.00 0.00 81 1018.3
20260903133148 27 154 0.0 0.0 0.00 0.00 0.00 84 1018.5
20260903132643 27 154 0.0 3.2 0.00 0.00 0.00 83 1018.5
20260903132143 27 279 0.0 1.6 0.00 0.00 0.00 84 1018.7
20260903131637 26 159 0.0 0.0 0.00 0.00 0.00 86 1018.6
20260903131137 26 345 0.0 1.6 0.00 0.00 0.00 87 1018.8
20260903130632 26 159 0.0 3.2 0.00 0.00 0.00 89 1018.9
20260903130126 25 49 0.0 0.0 0.00 0.00 0.00 90 1018.7
20260903125624 25 184 0.0 0.0 0.00 0.00 0.00 94 1018.9
20260903125120 25 174 0.0 1.6 0.00 0.00 0.00 95 1019.1
20260903124619 24 235 0.0 0.0 0.00 0.00 0.00 98 1019.1
20260903124114 24 172 0.0 3.2 0.00 0.00 0.00 99 1019.2
20260903123614 24 184 0.0 3.2 0.00 0.00 0.00 99 1019.2
20260903123112 23 153 3.2 3.2 0.00 0.00 0.00 99 1019.1
20260903122607 23 159 0.0 1.6 0.00 0.00 0.00 99 1018.9
20260903122106 23 167 0.0 1.6 0.00 0.00 0.00 99 1018.9
20260903121601 23 239 0.0 1.6 0.00 0.00 0.00 99 1019.3
20260903121056 23 172 0.0 1.6 0.00 0.00 0.00 99 1019.0
20260903120555 23 176 0.0 1.6 0.00 0.00 0.00 99 1019.1
20260903120050 23 162 1.6 1.6 0.00 0.00 0.00 99 1018.8
20260903115548 23 174 1.6 1.6 0.00 0.00 0.00 99 1018.9
20260903115044 23 143 0.0 0.0 0.00 0.00 0.00 99 1019.0
20260903114538 23 164 0.0 1.6 0.00 0.00 0.00 99 1019.0
20260903114034 22 155 0.0 1.6 0.00 0.00 0.00 99 1018.9
20260903113530 22 159 0.0 0.0 0.00 0.00 0.00 99 1018.8
20260903113026 22 147 0.0 0.0 0.00 0.00 0.00 99 1018.8
20260903112521 22 147 0.0 0.0 0.00 0.00 0.00 99 1018.6
20260903112021 22 164 0.0 1.6 0.00 0.00 0.00 99 1018.8
20260903111520 22 160 1.6 1.6 0.00 0.00 0.00 99 1018.9
20260903111017 22 159 0.0 1.6 0.00 0.00 0.00 99 1018.6
20260903110513 22 133 0.0 0.0 0.00 0.00 0.00 99 1018.7
20260903110007 22 159 0.0 0.0 0.00 0.00 0.00 99 1018.3
20260903105501 22 149 1.6 3.2 0.00 0.00 0.00 99 1018.4
20260903104956 22 147 1.6 1.6 0.00 0.00 0.00 99 1018.5
20260903104455 22 161 0.0 1.6 0.00 0.00 0.00 99 1018.3
20260903103952 22 96 0.0 1.6 0.00 0.00 0.00 99 1018.5
20260903103448 22 146 0.0 1.6 0.00 0.00 0.00 99 1018.4
20260903102943 22 145 0.0 1.6 0.00 0.00 0.00 99 1018.4
20260903102439 22 147 1.6 3.2 0.00 0.00 0.00 99 1018.4
20260903101937 22 124 1.6 1.6 0.00 0.00 0.00 99 1018.5
20260903101432 22 95 1.6 1.6 0.00 0.00 0.00 99 1018.4
20260903100928 22 160 0.0 0.0 0.00 0.00 0.00 99 1018.5
20260903100423 22 177 1.6 3.2 0.00 0.00 0.00 99 1018.4
20260903095920 22 213 0.0 4.8 0.00 0.00 0.00 99 1018.5
20260903095415 22 188 1.6 3.2 0.00 0.00 0.00 99 1018.3
20260903094910 23 163 1.6 3.2 0.00 0.00 0.00 99 1018.5
20260903094409 23 151 3.2 3.2 0.00 0.00 0.00 99 1018.3
20260903093905 23 159 0.0 1.6 0.00 0.00 0.00 99 1018.3
20260903093354 23 92 0.0 0.0 0.00 0.00 0.00 99 1018.4
20260903092850 23 156 0.0 1.6 0.00 0.00 0.00 99 1018.3
20260903092344 23 147 0.0 0.0 0.00 0.00 0.00 99 1018.3
20260903091843 23 59 0.0 0.0 0.00 0.00 0.00 99 1018.3
20260903091342 23 184 0.0 0.0 0.00 0.00 0.00 99 1018.2
20260903090837 23 165 0.0 0.0 0.00 0.00 0.00 99 1018.1
20260903090332 23 145 1.6 1.6 0.00 0.00 0.00 99 1018.2
20260903085830 23 152 3.2 3.2 0.00 0.00 0.00 99 1017.8
20260903085330 23 135 1.6 3.2 0.00 0.00 0.00 98 1017.9
20260903084829 23 149 1.6 3.2 0.00 0.00 0.00 99 1017.8
20260903084328 23 95 0.0 1.6 0.00 0.00 0.00 98 1017.8
20260903083823 23 79 0.0 1.6 0.00 0.00 0.00 98 1017.9
20260903083319 23 150 0.0 1.6 0.00 0.00 0.00 98 1017.8
20260903082818 23 157 0.0 1.6 0.00 0.00 0.00 98 1017.8
20260903082313 23 85 0.0 0.0 0.00 0.00 0.00 98 1017.8
20260903081809 23 123 0.0 1.6 0.00 0.00 0.00 98 1017.9
20260903081304 23 85 0.0 1.6 0.00 0.00 0.00 98 1018.0
20260903080801 23 85 0.0 1.6 0.00 0.00 0.00 98 1018.0
20260903080258 23 148 1.6 1.6 0.00 0.00 0.00 98 1018.1
20260903075757 23 161 0.0 1.6 0.00 0.00 0.00 98 1018.2
20260903075252 23 124 1.6 1.6 0.00 0.00 0.00 98 1018.1
20260903074751 23 149 1.6 3.2 0.00 0.00 0.00 98 1018.1
20260903074246 23 153 1.6 3.2 0.00 0.00 0.00 98 1018.3
20260903073741 23 151 1.6 3.2 0.00 0.00 0.00 98 1018.2
20260903073237 23 157 1.6 3.2 0.00 0.00 0.00 98 1018.1
20260903072733 23 170 1.6 3.2 0.00 0.00 0.00 98 1018.3
20260903072229 23 158 1.6 3.2 0.00 0.00 0.00 98 1018.3
20260903071725 23 129 3.2 3.2 0.00 0.00 0.00 98 1018.2
20260903071221 23 108 0.0 1.6 0.00 0.00 0.00 98 1018.2
20260903070720 23 143 0.0 1.6 0.00 0.00 0.00 98 1018.4
20260903070216 23 150 1.6 3.2 0.00 0.00 0.00 98 1018.2
20260903065711 23 154 0.0 1.6 0.00 0.00 0.00 98 1018.3
20260903065205 23 163 3.2 3.2 0.00 0.00 0.00 98 1018.2
20260903064704 23 168 1.6 3.2 0.00 0.00 0.00 98 1018.4
20260903064200 23 210 0.0 0.0 0.00 0.00 0.00 98 1018.4
20260903063655 23 245 1.6 1.6 0.00 0.00 0.00 97 1018.4
20260903063149 23 158 1.6 3.2 0.00 0.00 0.00 97 1018.5
20260903062646 23 159 0.0 0.0 0.00 0.00 0.00 97 1018.4
20260903062140 23 159 0.0 0.0 0.00 0.00 0.00 97 1018.5
20260903061635 23 171 0.0 1.6 0.00 0.00 0.00 97 1018.4
20260903061134 23 151 1.6 3.2 0.00 0.00 0.00 97 1018.6
20260903060630 23 163 0.0 1.6 0.00 0.00 0.00 97 1018.6
20260903060125 23 184 0.0 0.0 0.00 0.00 0.00 97 1018.4
20260903055622 23 184 0.0 0.0 0.00 0.00 0.00 97 1018.5
20260903055121 23 185 0.0 3.2 0.00 0.00 0.00 97 1018.6
20260903054616 24 147 3.2 3.2 0.00 0.00 0.00 96 1018.7
20260903054112 24 142 1.6 1.6 0.00 0.00 0.00 96 1018.8
20260903053607 24 149 1.6 1.6 0.00 0.00 0.00 95 1019.0
20260903053103 24 138 1.6 4.8 0.00 0.00 0.00 95 1018.8
20260903052559 24 172 1.6 3.2 0.00 0.00 0.00 95 1018.9
20260903052054 24 176 3.2 3.2 0.00 0.00 0.00 95 1018.8
20260903051549 24 252 1.6 3.2 0.00 0.00 0.00 95 1018.8
20260903051044 24 219 1.6 1.6 0.00 0.00 0.00 95 1018.8
20260903050544 24 162 0.0 4.8 0.00 0.00 0.00 95 1018.8
20260903050039 24 209 0.0 3.2 0.00 0.00 0.00 95 1018.9
20260903045538 24 181 0.0 3.2 0.00 0.00 0.00 95 1018.9
20260903045036 25 186 1.6 3.2 0.00 0.00 0.00 94 1018.7
20260903044531 25 138 3.2 3.2 0.00 0.00 0.00 94 1018.9
20260903044026 25 162 1.6 3.2 0.00 0.00 0.00 94 1019.0
20260903043522 25 168 1.6 3.2 0.00 0.00 0.00 94 1018.9
20260903043022 25 272 0.0 3.2 0.00 0.00 0.00 95 1018.9
20260903042522 25 203 1.6 3.2 0.00 0.00 0.00 95 1018.9
20260903042018 25 190 1.6 1.6 0.00 0.00 0.00 95 1018.9
20260903041514 25 220 0.0 0.0 0.00 0.00 0.00 95 1018.8
20260903041009 25 266 0.0 0.0 0.00 0.00 0.00 96 1018.7
20260903040508 25 92 0.0 1.6 0.00 0.00 0.00 96 1018.4
20260903040008 25 187 0.0 0.0 0.00 0.00 0.00 96 1018.4
20260903035500 25 145 3.2 3.2 0.00 0.00 0.00 96 1018.6
20260903034955 25 177 0.0 0.0 0.00 0.00 0.00 96 1018.8
20260903034450 25 156 0.0 1.6 0.00 0.00 0.00 96 1018.7
20260903033949 25 147 0.0 1.6 0.00 0.00 0.00 96 1018.4
20260903033445 25 223 0.0 3.2 0.00 0.00 0.00 95 1018.4
20260903032940 25 134 0.0 0.0 0.00 0.00 0.00 95 1018.2
20260903032436 25 154 0.0 0.0 0.00 0.00 0.00 95 1018.3
20260903031931 25 148 1.6 3.2 0.00 0.00 0.00 95 1018.2
20260903031431 25 144 1.6 1.6 0.00 0.00 0.00 95 1018.5
20260903030926 25 67 0.0 0.0 0.00 0.00 0.00 95 1018.6
20260903030422 25 136 0.0 1.6 0.00 0.00 0.00 95 1018.4
20260903025918 25 159 0.0 0.0 0.00 0.00 0.00 95 1018.4
20260903025413 25 127 1.6 3.2 0.00 0.00 0.00 94 1018.4
20260903024908 25 147 0.0 0.0 0.00 0.00 0.00 94 1018.7
20260903024402 25 127 1.6 1.6 0.00 0.00 0.00 94 1018.5
20260903023857 25 142 1.6 1.6 0.00 0.00 0.00 94 1018.7
20260903023353 25 165 0.0 0.0 0.00 0.00 0.00 94 1018.6
20260903022848 25 79 0.0 1.6 0.00 0.00 0.00 93 1018.6
20260903022347 25 125 1.6 3.2 0.00 0.00 0.00 93 1018.8
20260903021846 25 173 1.6 3.2 0.00 0.00 0.00 92 1018.7
20260903021342 25 170 1.6 3.2 0.00 0.00 0.00 92 1018.7
20260903020841 25 187 0.0 1.6 0.00 0.00 0.00 92 1018.9
20260903020337 25 184 1.6 3.2 0.00 0.00 0.00 92 1018.9
20260903015831 25 174 1.6 3.2 0.00 0.00 0.00 91 1019.0
20260903015326 25 150 0.0 1.6 0.00 0.00 0.00 91 1019.1
20260903014822 25 203 1.6 3.2 0.00 0.00 0.00 91 1019.0
20260903014316 25 187 0.0 1.6 0.00 0.00 0.00 91 1019.1
20260903013811 26 172 0.0 1.6 0.00 0.00 0.00 91 1019.0
20260903013309 26 140 0.0 3.2 0.00 0.00 0.00 91 1019.0
20260903012808 26 158 1.6 1.6 0.00 0.00 0.00 90 1019.1
20260903012258 26 155 1.6 1.6 0.00 0.00 0.00 89 1019.0
20260903011757 26 178 1.6 3.2 0.00 0.00 0.00 89 1019.2
20260903011256 26 202 3.2 3.2 0.00 0.00 0.00 88 1019.0
20260903010752 26 123 0.0 3.2 0.00 0.00 0.00 87 1018.9
20260903010247 27 143 0.0 1.6 0.00 0.00 0.00 87 1018.7
20260903005746 27 138 1.6 3.2 0.00 0.00 0.00 86 1018.9
20260903005241 27 159 0.0 3.2 0.00 0.00 0.00 86 1019.0
20260903004736 27 132 1.6 3.2 0.00 0.00 0.00 85 1018.6
20260903004232 27 235 0.0 0.0 0.00 0.00 0.00 86 1018.8
20260903003727 27 162 1.6 3.2 0.00 0.00 0.00 86 1018.6
20260903003223 27 272 0.0 1.6 0.00 0.00 0.00 86 1018.5
20260903002717 27 133 1.6 3.2 0.00 0.00 0.00 85 1018.5
20260903002211 27 119 3.2 3.2 0.00 0.00 0.00 85 1018.4
20260903001707 27 159 0.0 0.0 0.00 0.00 0.00 82 1018.5
20260903001201 27 232 0.0 0.0 0.00 0.00 0.00 82 1018.7
20260903000657 27 159 0.0 0.0 0.00 0.00 0.00 82 1018.6
20260903000155 28 123 1.6 1.6 0.00 0.00 0.00 81 1018.5
20260902235654 28 133 1.6 3.2 0.00 0.00 0.00 80 1018.7
20260902235144 28 166 1.6 1.6 0.00 0.00 0.00 80 1018.5
20260902234643 28 111 1.6 3.2 0.00 0.00 0.00 80 1018.5
20260902234142 28 105 3.2 4.8 0.00 0.00 0.00 79 1018.4
20260902233638 28 127 3.2 3.2 0.00 0.00 0.00 79 1018.3
20260902233137 28 242 0.0 0.0 0.00 0.00 0.00 80 1018.1
20260902232636 28 125 3.2 3.2 0.00 0.00 0.00 80 1018.6
20260902232136 29 129 1.6 3.2 0.00 0.00 0.00 79 1018.5
20260902231636 29 94 1.6 1.6 0.00 0.00 0.00 78 1018.8
20260902231130 29 20 1.6 3.2 0.00 0.00 0.00 78 1018.8
20260902230626 29 55 0.0 0.0 0.00 0.00 0.00 78 1019.2
20260902230124 29 229 0.0 4.8 0.00 0.00 0.00 77 1019.3
20260902225620 29 190 3.2 3.2 0.00 0.00 0.00 78 1019.0
20260902225119 28 232 0.0 3.2 0.00 0.00 0.00 78 1018.7
20260902224618 28 248 0.0 1.6 0.00 0.00 0.00 78 1018.6
20260902224114 28 147 0.0 3.2 0.00 0.00 0.00 77 1018.5
20260902223610 28 178 0.0 3.2 0.00 0.00 0.00 76 1019.0
20260902223109 29 358 3.2 3.2 0.00 0.00 0.00 74 1019.0
20260902222608 29 340 0.0 1.6 0.00 0.00 0.00 73 1019.1
20260902222107 29 119 0.0 0.0 0.00 0.00 0.00 72 1019.2
20260902221601 29 194 0.0 1.6 0.00 0.00 0.00 70 1019.3
20260902221056 29 140 1.6 3.2 0.00 0.00 0.00 69 1019.3
20260902220552 30 57 1.6 4.8 0.00 0.00 0.00 69 1018.8
20260902220046 30 141 3.2 3.2 0.00 0.00 0.00 67 1018.7
20260902215542 30 35 1.6 1.6 0.00 0.00 0.00 66 1018.8
20260902215037 30 255 3.2 4.8 0.00 0.00 0.00 65 1019.0
20260902214532 30 20 3.2 4.8 0.00 0.00 0.00 65 1018.9
20260902214031 30 329 0.0 4.8 0.00 0.00 0.00 65 1018.8
20260902213527 31 226 1.6 9.7 0.00 0.00 0.00 64 1018.9
20260902213026 31 227 11.3 17.7 0.00 0.00 0.00 62 1018.8
20260902212522 31 155 6.4 8.0 0.00 0.00 0.00 62 1018.8
20260902212018 32 210 8.0 9.7 0.00 0.00 0.00 61 1018.6
20260902211514 32 26 1.6 8.0 0.00 0.00 0.00 63 1018.5
20260902211009 32 78 3.2 8.0 0.00 0.00 0.00 62 1018.5
20260902210508 32 176 1.6 8.0 0.00 0.00 0.00 62 1018.5
20260902210008 33 299 0.0 6.4 0.00 0.00 0.00 62 1018.4
20260902205502 33 277 3.2 4.8 0.00 0.00 0.00 60 1018.2
20260902204958 34 247 4.8 6.4 0.00 0.00 0.00 56 1018.5
20260902204457 34 282 6.4 16.1 0.00 0.00 0.00 56 1018.3
20260902203952 34 293 3.2 3.2 0.00 0.00 0.00 57 1018.4
20260902203448 35 25 4.8 12.9 0.00 0.00 0.00 55 1018.6
20260902202946 35 218 4.8 8.0 0.00 0.00 0.00 54 1018.5
20260902202443 35 344 3.2 8.0 0.00 0.00 0.00 54 1018.3
20260902201939 35 270 3.2 4.8 0.00 0.00 0.00 53 1018.3
20260902201434 35 336 3.2 6.4 0.00 0.00 0.00 52 1018.5
20260902200934 35 285 3.2 3.2 0.00 0.00 0.00 51 1018.7
20260902200430 35 315 0.0 3.2 0.00 0.00 0.00 51 1018.6
20260902195925 35 259 1.6 11.3 0.00 0.00 0.00 49 1018.5
20260902195420 35 281 8.0 9.7 0.00 0.00 0.00 49 1018.7
20260902194914 35 277 4.8 11.3 0.00 0.00 0.00 50 1018.6
20260902194414 35 266 9.7 9.7 0.00 0.00 0.00 51 1018.4
20260902193909 35 202 1.6 3.2 0.00 0.00 0.00 52 1018.6
20260902193405 35 265 0.0 4.8 0.00 0.00 0.00 50 1018.5
20260902192903 35 186 1.6 9.7 0.00 0.00 0.00 51 1018.3
20260902192403 35 243 8.0 8.0 0.00 0.00 0.00 51 1018.4
20260902191856 35 320 3.2 6.4 0.00 0.00 0.00 50 1018.5
20260902191352 35 159 0.0 4.8 0.00 0.00 0.00 52 1018.7
20260902190847 35 174 4.8 8.0 0.00 0.00 0.00 52 1018.4
20260902190347 35 9 4.8 4.8 0.00 0.00 0.00 52 1018.6
20260902185843 35 331 3.2 4.8 0.00 0.00 0.00 52 1018.8
20260902185338 34 261 1.6 4.8 0.00 0.00 0.00 54 1018.9
20260902184834 34 272 0.0 1.6 0.00 0.00 0.00 56 1018.8
20260902184329 34 157 0.0 4.8 0.00 0.00 0.00 54 1018.9
20260902183825 34 194 3.2 8.0 0.00 0.00 0.00 55 1019.1
20260902183321 35 281 6.4 9.7 0.00 0.00 0.00 53 1019.2
20260902182817 35 190 1.6 3.2 0.00 0.00 0.00 54 1019.2
20260902182313 35 203 0.0 9.7 0.00 0.00 0.00 54 1019.1